Regional Weather Roundup
Issued by NWS Grand Forks, ND

Home | Current Version | Previous Version | Text Only | Print | Product List | Glossary On
Versions: 1 2 3 4 5 6 7 8 9 10 11 12 13 14 15 16 17 18 19 20 21 22 23 24 25 26 27 28 29 30 31 32 33 34 35 36 37 38 39 40 41 42 43 44 45 46 47 48 49 50
000
ASUS43 KFGF 290731
RWRFGF
PRAIRIE TO PINES  WEATHER ROUNDUP
NATIONAL WEATHER SERVICE EASTERN NORTH DAKOTA/GRAND FORKS ND
200 AM CDT WED MAR 29 2017

 **SATELLITE DATA USED TO AUGMENT SKY COVER AT AUTOMATED STATIONS**
 *****  WEATHER ACROSS EASTERN NORTH DAKOTA  *****

CITY           SKY/WX    TMP DP  RH WIND       PRES   REMARKS
GRAND FORKS    FAIR      34  33  96 NW3       30.20S
GRAND FRKS AFB FOG       30  30 100 CALM      30.19F VSB 1/2
DEVILS LAKE    FAIR      34  34 100 SE5       30.17F FOG
FARGO          FAIR      40  36  86 NE5       30.17F
WAHPETON ARPT  FAIR      37  34  87 N3        30.17F
$$

 ***** WEATHER ACROSS CENTRAL AND WESTERN NORTH DAKOTA  *****

CITY           SKY/WX    TMP DP  RH WIND       PRES   REMARKS
BISMARCK       MOCLDY    40  36  86 S3        30.15F
MINOT          CLOUDY    41  39  93 NW3       30.09F
JAMESTOWN      FAIR      35  34  96 CALM      30.17S FOG
MINOT AFB      CLOUDY    39  39 100 SE8       30.07F
GARRISON         N/A     40  35  83 S3        30.10F
WILLISTON      FOG       33  33 100 CALM      30.09F VSB 1/4
DICKINSON      MOCLDY    40  39  97 S10       30.08F
HETTINGER      FAIR      41  38  89 S7        30.12F
$$

 *****  OTHER AIRPORT OBSERVATIONS IN OUR AREA  *****

CITY           SKY/WX    TMP DP  RH WIND       PRES   REMARKS
WALHALLA       NOT AVBL
GRAFTON AIRPOR FAIR      32  32 100 CALM      30.21S
VALLEY CITY AR FAIR      39  39 100 NE3       30.19F
CANDO          NOT AVBL
CAVALIER APRT  FAIR      32  32 100 CALM      30.19F FOG
GWINNER        SUNNY     41  39  93 MISG      30.17S
SHEYENNE NWR     N/A     35  35  99 CALM      29.95S
ROLLA          CLOUDY    34  34 100 CALM      30.15F
 ***** THE ABOVE OBSERVATIONS ARE NON NWS ARE NOT QUALITY
       CONTROLLED AND MAY MIS-REPORT RAIN FOR SNOW...
$$

  *****  WEATHER ACROSS NORTHERN MINNESOTA  *****

CITY           SKY/WX    TMP DP  RH WIND       PRES   REMARKS
FLAG ISLAND    FAIR      36  21  55 E3        30.25S
WARROAD        FAIR      32  28  86 E6        30.25S
ROSEAU         FAIR      36  28  75 E6        30.23S
HALLOCK        FAIR      37  30  75 E12       30.20S
THF RVR FALLS  FAIR      38  29  70 E8        30.22S
BAUDETTE       FAIR      33  24  69 E5        30.25S
WASKISH        FAIR      34  27  75 E7        30.23F
CROOKSTON      FAIR      39  30  70 E8        30.21S
STEPHEN NDAWN    N/A     36  30  80 SE5         N/A
GREENBUSH NDAW   N/A     36  30  80 E5          N/A
$$
  *****  WEATHER ACROSS CENTRAL AND WEST MINNESOTA  *****

CITY           SKY/WX    TMP DP  RH WIND       PRES   REMARKS
FOSSTON        FAIR      32  27  80 E3        30.21S
BEMIDJI        FAIR      32  25  73 E3        30.21S
PARK RAPIDS    FAIR      35  25  66 CALM      30.19S
ELBOW LAKE     FAIR      40  37  89 CALM      30.16F FOG
WADENA         FAIR      39  27  60 NE6       30.18S
DETROIT LAKES  FAIR      43  30  61 E5        30.19S
MOORHEAD       FAIR      37  32  81 NE7       30.18F
FERGUS FALLS   FAIR      45  34  65 E9        30.20S
MORRIS MN      FAIR      39  34  81 E5        30.17R
STAPLES        FAIR      36  28  75 CALM      30.18F
$$
  *****  WEATHER ELSEWHERE ACROSS MINNESOTA  *****

CITY           SKY/WX    TMP DP  RH WIND       PRES   REMARKS
DULUTH         FAIR      36  26  67 E13       30.26S
INTRNTL FALLS  FAIR      34  23  64 E5        30.26S
ELY            FAIR      28  25  86 CALM      30.28R
CLOQUET        FAIR      36  27  69 E9        30.25S
WHEATON        FAIR      37  36  93 CALM      30.20R FOG
BRAINERD       FAIR      30  26  85 CALM      30.20S
HIBBING        FAIR      30  25  81 E5        30.25S
ALEXANDRIA     FAIR      39  31  72 CALM      30.17F
SAINT CLOUD    FAIR      33  29  85 CALM      30.17F
MINNEAPOLIS    MOCLDY    44  34  67 E3        30.18S
$$

  *****  WEATHER ACROSS SOUTH DAKOTA  *****

CITY           SKY/WX    TMP DP  RH WIND       PRES   REMARKS
SIOUX FALLS    FAIR      42  36  79 E3        30.15R
BROOKINGS      FAIR      43  35  73 NE3       30.15R
WATERTOWN      FAIR      45  37  73 E6        30.16R
HURON          FAIR      43  39  86 E5        30.15R
SISSETON         N/A     38  35  89 NW6       30.17S
ABERDEEN       FAIR      40  33  76 E8        30.15F
MITCHELL       FAIR      44  38  79 E3        30.14S
PIERRE         CLOUDY    44  42  93 N3        30.14S
MOBRIDGE       CLOUDY    46  41  82 N7        30.12F
RAPID CITY     CLOUDY    42  40  92 SE5       30.11S
$$

  *****  SOME WEATHER IN NEARBY STATES *****

CITY           SKY/WX    TMP DP  RH WIND       PRES   REMARKS
GLASGOW MT     CLOUDY    41  34  76 SE10      30.03F
GREAT FALLS MT FAIR      40  24  53 SW15      30.05F
CHEYENNE WY    CLOUDY    34  32  92 N10       30.08R
SCOTTSBLUFF NE CLOUDY    40  37  89 N3        30.12R FOG
OMAHA NE       LGT RAIN  49  42  77 NE7       30.09F
DES MOINES IA  CLOUDY    48  43  82 E8        30.11R
DAVENPORT IA   CLOUDY    41  38  89 E10       30.18R
CHICAGO IL     FOG       36  34  92 NE7       30.22F VSB 1/2
EAU CLAIRE WI  FAIR      35  29  78 NE7       30.21R
LA CROSSE WI   FAIR      43  34  70 S6        30.21R
$$

  *****  SOME NATIONAL WEATHER *****

CITY           SKY/WX    TMP DP  RH WIND       PRES   REMARKS
LA GUARDIA NY  CLOUDY    48  43  82 N10       29.95R
RALEIGH NC     FAIR      60  49  66 CALM      29.96S
ATLANTA GA     FAIR      63  56  78 NW3       30.00F
NEW ORLEANS LA FAIR      70  68  93 SE8       29.92F
OKLAHOMA CITY  TSTM      52  51  97 NW12      29.76S FOG
ALBUQUERQUE NM LGT RAIN  43  38  82 NW6       29.83R
SALT LAKE CITY FAIR      41  32  70 N8        30.22R
LOS ANGELES CA FAIR      63  50  62 CALM      30.00S
BOISE ID       FAIR      41  32  70 SE6       30.25F
SEATTLE WA     LGT RAIN  47  43  86 S8        30.14F
$$

*** WEATHER ACROSS MANITOBA...SASKATCHEWAN AND ONTARIO ***
                ***ONTARIO***

CITY           SKY/WX    TMP DP  RH WIND       PRES   REMARKS
GERALDTON      PTCLDY    18  14  86 NE2       30.39S
THUNDER BAY    CLEAR     25  21  86 VRB2      30.37S
SIOUX LOOKOUT  PTCLDY    28  18  64 SE6       30.33S WCI  22
TORONTO        CLEAR     36  30  80 N10       30.21R
BIG TROUT LK     N/A      9   7  92 MISG      30.44S
PICKLE LAKE    NOT AVBL
DRYDEN         CLOUDY    28  21  74 E8        30.29F WCI  20
KENORA         CLOUDY    34  19  55 E7        30.27S
$$
                *** MANITOBA***

CITY           SKY/WX    TMP DP  RH WIND       PRES   REMARKS
BRANDON        FRZ RAIN  32  30  93 E12       30.17S WCI  23
DAUPHIN        CLOUDY    32  30  93 SE15      30.17F WCI  22
ISLAND LAKE    PTCLDY    23  16  74 SE8       30.34F WCI  14
PILOT MOUND      N/A     34  30  86 SE9         N/A
THE PAS        CLOUDY    30  21  69 SE16      30.17F WCI  19
THOMPSON       CLEAR     16   9  73 E5        30.28F WCI   9
WINNIPEG       MOCLDY    39  27  60 SE9       30.20F
LYNN LAKE      CLOUDY    19  14  79 SE6       30.16F WCI  11
CHURCHILL      CLEAR      1   0  92 S10       30.42S WCI -14
GILLAM         CLEAR     10   3  72 SE5       30.37F WCI   2
$$
                ***SASKATCHEWAN***

CITY           SKY/WX    TMP DP  RH WIND       PRES   REMARKS
ESTEVAN        FOG       30  30 100 S2        30.08F VSB 1/8
KINDERSLEY     PTCLDY    34  27  75 S9        29.85F
LLOYDMINSTER   CLOUDY    36  36 100 E7        29.85F FOG
PRINCE ALBERT  CLOUDY    36  34  93 SE9       29.99F
REGINA         FOG       36  36 100 SE14      30.02S VSB 1/4
YORKTON        CLOUDY    32  32 100 SE10      30.09F FOG     WCI  24
N. BATTLEFORD  CLOUDY    36 N/A N/A E13       29.88F HAZE
LA RONGE       FLURRIES  34  27  75 E8        30.03F
SASKATOON      MOCLDY    36  34  93 SE10      29.92F
SWIFT CURRENT  CLOUDY    37  28  70 S10       29.93F
$$
NOTE: THESE ARE AUTOMATED STATIONS WITH LIMITED QUALITY CONTROL
      "FAIR" INDICATES FEW OR NO CLOUDS BELOW 12,000 FEET WITH NO
      SIGNIFICANT WEATHER AND/OR OBSTRUCTIONS TO VISIBILITY.
      SKY/WX - SKY CONDITION AND SIGNIFICANT WEATHER.
      TMP - AIR TEMPERATURE.    DP   - DEWPOINT TEMPERATURE.
      RH  - RELATIVE HUMIDITY.  PRES - PRESSURE.
      HX  - HEAT INDEX.         WCI  - WIND CHILL INDEX.
$




USA.gov is the U.S. government's official web portal to all federal, state and local government web resources and services.